Vertical_Velocity
-16 -5 -8 -5 -3 6 20 17 9 2 -3 2 -10 6 6 5 5 -3 4 -5 -9 -1
3 -1 -10 -3 -4 -1 -5 3 -1 1 3 -1 -2 -2 -3 3 -9 -6 -1 -1 -5 0
1 -0 -8 5 -2 -2 -10 -1 -9 -4 -1 -6 -7 3 2 -2 0 2 -2 2 -2 2
-1 5 2 1 -5 -4 -0 -1 -7 -1 5 2 2 4 0 -1 2 1 -1 3 -0 2
3 7 9 -7 2 0 4 -1 -3 -3 0 2 3 0 0 1 2 2 -2 3 8 -3
7 4 1 7 -3 7 1 1 2 2 8 12 1 2 3 -1 3 2 3 -2 5 3
-3 0 -2 -3 -1 3 -1 1 -2 4 5 3 7 0 2 1 6 0 -0 9 11 7
-3 -1 5 -1 1 -2 16 -4 4 -4 3 21 13 8 1 15 2 -1 3 -2 -2 -2
-2 1 2 1 -2 3 9 4 4 -2 -3 6 4 3 3 -1 -5 -5 -2 -3 5 -1
2 -2 2 3 6 7 -3 -0 -5 4 4 -1 -2 -3 1 -0 -3 0 1 -3 -4 2
-4 2 -3 -5 -1 -4 1 1 1 -5 -6 0 1 -1 -5 -2 -2 -4 2 4 -2 -1
-1 -0 -3 1 0 -1 2 1 1 -2 -2 -2 1 -3 1 -1 1 3 -3 -1 1 -2
8 2 5 -6 -0 3 3 -1 0 2 0 -1 -3 -0 3 2 2 6 4 10 -6 1
4 1 -3 -2 -2 -0 2 1 -1 3 5 0 6 7 1 2 0 -1 -8 0 1 -2
Height
5690 5692 5699 5705 5707 5715 5722 5727 5728 5734 5740 5743 5743 5744 5744 5746 5751 5751 5754 5754 5755 5754
5688 5691 5695 5699 5706 5713 5715 5719 5721 5726 5730 5731 5732 5733 5738 5740 5740 5743 5742 5741 5742 5742
5682 5685 5691 5696 5699 5704 5711 5713 5713 5718 5721 5721 5722 5726 5728 5729 5730 5729 5729 5728 5728 5728
5672 5677 5683 5688 5692 5696 5699 5704 5706 5707 5709 5710 5713 5715 5716 5716 5716 5716 5716 5715 5715 5716
5664 5669 5675 5679 5683 5686 5689 5692 5695 5699 5701 5701 5702 5703 5703 5703 5703 5703 5703 5703 5702 5700
5659 5661 5666 5667 5674 5676 5680 5681 5683 5685 5686 5689 5690 5691 5689 5690 5689 5691 5690 5691 5688 5687
5654 5655 5659 5663 5665 5667 5669 5672 5672 5674 5676 5677 5676 5677 5677 5678 5678 5678 5677 5676 5676 5673
5647 5650 5651 5655 5656 5658 5659 5662 5663 5664 5664 5665 5664 5664 5666 5666 5666 5665 5664 5663 5661 5660
5642 5642 5644 5646 5649 5651 5651 5652 5653 5653 5654 5655 5655 5655 5656 5655 5654 5655 5654 5650 5649 5646
5634 5636 5636 5638 5639 5640 5642 5645 5646 5644 5644 5644 5645 5644 5644 5642 5642 5642 5640 5638 5636 5633
5629 5629 5631 5631 5631 5631 5632 5633 5634 5635 5634 5633 5633 5633 5632 5631 5629 5627 5625 5624 5622 5619
5620 5621 5622 5622 5623 5624 5624 5624 5623 5623 5623 5622 5621 5621 5618 5618 5617 5614 5612 5610 5607 5605
5609 5609 5610 5610 5611 5612 5612 5612 5611 5611 5610 5609 5609 5607 5606 5605 5603 5601 5598 5594 5593 5587
5598 5598 5599 5599 5599 5599 5599 5599 5599 5598 5597 5596 5595 5593 5592 5591 5589 5586 5583 5579 5576 5572